User: anonymous   Login
Location: Cuzcurrita-R�o Tir�n
(42.5415°N, 2.9642°W)
Time: 14:09:54
(UTC+00:00)
Language:

Cosmos 489 Rocket - Orbit

View from above orbital plane
View from above orbital plane
View from above satellite
View from above satellite

Ground track
Ground track

The orbit data is extracted from the following two-line orbital elements,

1  6020U 72035B   21108.19035278  .00000081  00000-0  10208-3 0  9995
2  6020  74.0196  93.4068 0019866 111.6664 329.6294 13.78845014462268
Epoch (UTC): 18 April 2021 04:34:06
Eccentricity: 0.0019866
inclination: 74.0196°
perigee height: 953 km
apogee height: 982 km
right ascension of ascending node: 93.4068°
argument of perigee: 111.6664°
revolutions per day: 13.78845014
mean anomaly at epoch: 329.6294°
orbit number at epoch: 46226

The dashed part of the orbit path shows where the satellite is in the earth's shadow,  

DLR